This is the latest recevied weather packets stored in our database for station/object KC2WGU. If no packets are shown the sender has not sent any weather packets the latest 10 day(s).
| Time | Temp. | Humidity | Pressure | Rain* | Wind** | Luminosity | Snow |
|---|---|---|---|---|---|---|---|
| 1777320620 | 21.11° C | 33% | 1020.3 hPa | 0 mm | - | 0 W/m² | - |
| 1777320021 | 21.11° C | 35% | 1020.4 hPa | 0 mm | - | 0 W/m² | - |
| 1777319422 | 20.56° C | 33% | 1020.5 hPa | 0 mm | - | 0 W/m² | - |
| 1777318820 | 20.56° C | 36% | 1020.7 hPa | 0 mm | - | 0 W/m² | - |
| 1777318221 | 20.56° C | 36% | 1020.7 hPa | 0 mm | - | 0 W/m² | - |
| 1777317620 | 20.56° C | 37% | 1020.9 hPa | 0 mm | - | 0 W/m² | - |
| 1777317021 | 20.56° C | 36% | 1020.9 hPa | 0 mm | - | 0 W/m² | - |
| 1777316420 | 20.56° C | 38% | 1020.8 hPa | 0 mm | - | 0 W/m² | - |
| 1777315821 | 20° C | 37% | 1020.8 hPa | 0 mm | - | 0 W/m² | - |
| 1777315220 | 20° C | 37% | 1021 hPa | 0 mm | - | 0 W/m² | - |
| 1777314621 | 20° C | 40% | 1021.1 hPa | 0 mm | - | 0 W/m² | - |
| 1777314021 | 20° C | 45% | 1021.1 hPa | 0 mm | - | 0 W/m² | - |
| 1777313421 | 19.44° C | 44% | 1021.3 hPa | 0 mm | - | 0 W/m² | - |
| 1777312821 | 19.44° C | 45% | 1021.4 hPa | 0 mm | - | 0 W/m² | - |
| 1777312221 | 19.44° C | 46% | 1021.6 hPa | 0 mm | - | 0 W/m² | - |
| 1777311621 | 18.89° C | 44% | 1021.6 hPa | 0 mm | - | 0 W/m² | - |
| 1777311021 | 18.89° C | 43% | 1021.8 hPa | 0 mm | - | 0 W/m² | - |
| 1777310421 | 18.89° C | 44% | 1022.2 hPa | 0 mm | - | 0 W/m² | - |
| 1777309821 | 18.89° C | 47% | 1022.2 hPa | 0 mm | - | 0 W/m² | - |
| 1777309221 | 18.89° C | 48% | 1022.3 hPa | 0 mm | - | 0 W/m² | - |
| 1777308620 | 18.33° C | 46% | 1022.6 hPa | 0 mm | - | 0 W/m² | - |
| 1777308020 | 18.33° C | 45% | 1022.6 hPa | 0 mm | - | 0 W/m² | - |
| 1777307421 | 18.33° C | 47% | 1022.6 hPa | 0 mm | - | 0 W/m² | - |
| 1777306821 | 18.33° C | 49% | 1022.7 hPa | 0 mm | - | 0 W/m² | - |
| 1777306220 | 17.78° C | 49% | 1022.9 hPa | 0 mm | - | 0 W/m² | - |
* Rain latest hour (hover to see other rain measurements)
** Current wind speed in m/s (hover to see current wind gust speed)